Simultaneous Nadir Overpasses (SNOs) Predictions

Prediction of SNOs between METOP-B and TERRA Satellite Orbit:

Table of predicted SNOs for the next 14.0 days since TLE Epoch: 12/8/2012
Index Date (METOP-B) Time (METOP-B) METOP-B Lat,Lon Date (TERRA) Time (TERRA) TERRA Lat,Lon Distance(km) Time Diff (sec)
1 12/10/2012 12:56:25 -81.27,-147.59 12/10/2012 12:57:35 -81.27,-147.64 1.06 70
2 12/10/2012 13:47:04 81.27, 20.08 12/10/2012 13:47:01 81.28, 20.12 1.08 3
3 12/13/2012 08:30:50 -81.26, -81.42 12/13/2012 08:31:51 -81.25, -81.51 1.87 61
4 12/13/2012 09:21:28 81.27, 86.62 12/13/2012 09:21:16 81.28, 86.60 0.79 12
5 12/16/2012 04:05:14 -81.27, -14.83 12/16/2012 04:06:05 -81.27, -14.69 2.49 51
6 12/16/2012 04:55:52 81.28, 153.20 12/16/2012 04:55:31 81.28, 153.02 3.05 21
7 12/18/2012 23:39:38
